www.pogodaiklimat.ru

Погода и климат >> Архив погоды >> Индонезия >> Серуи


ПОГОДА в Серуи

  • Прогноз погоды в Серуи
  • Монитор погоды в Серуи

АРХИВ ПОГОДЫ в Серуи

Время (UTC), дата Ветер
(напр.,м/с)
 
Видим.   Явления Облачность Т
(С)
Тd
(С)
f
(%)
Тe
(С)
Тes
(С)
Комфортность P
(гПа)
Po
(гПа)
Тmin
(С)
Tmax
(С)
R
(мм)
R24
(мм)
S
(см)
03 20.06 З 3 8000 м мгла 9/4 360 м
[Cb cap Ac trans Ci fib]
+30.2 +25.1 74 +44 +49 опасность
перегрева
1007.4 1007.1
06 20.06 штиль 0 9000 м осадки на расстоянии {морось} 10/4 360 м
[Cu Sc Ac trans Ci fib]
+29.2 +24.4 75 +41 +44 опасность
перегрева
1006.2 1005.9
09 20.06 штиль 0 8000 м {дождь} 9/3
[Cu hum Ac trans Ci fib]
+28.8 +25.5 82 +42 +42 опасность
перегрева
1007.9 1007.0 2
12 20.06 С 2 5000 м зарница 9/4
[Cb cap Ac trans]
+26.8 +23.8 84 +37 +37 очень
душно
1009.6 1009.3 +30.6 2
15 20.06 С 2 5000 м зарница 9/4
[Cb cap Ac As]
+26.0 +24.0 89 +36 +36 очень
душно
1009.1 1008.8
18 20.06 штиль 0 н/о зарница 9/4
[Cb cap Ac As]
+25.4 +23.9 91 +35 +35 очень
душно
1008.0 1007.6
21 20.06 С 2 7000 м слаб. дождь 10/4
[Cb cap As op]
+25.2 +24.2 94 +35 +35 очень
душно
1008.1 1007.7 3
00 21.06 штиль 0 9000 м мгла {дождь, туман} 9/5 300 м
[Cb cap Ac trans Ci fib]
+27.0 +25.3 90 +39 +43 очень
душно
1008.4 1008.1 +23.0 3
03 21.06 З 3 10 км 8/3 360 м
[Cu med, cong Ac trans Ci fib]
+30.2 +26.0 78 +45 +53 опасность
перегрева
1006.1 1005.8
06 21.06 З 3 10 км 8/4 360 м
[Cb cap Ac trans Ci fib]
+30.4 +24.7 72 +43 +46 опасность
перегрева
1004.8 1004.5
12 21.06 штиль 0 6000 м зарница 8/4
[Cb cap Ac trans]
+27.2 +25.1 88 +39 +39 очень
душно
1008.8 1008.5 +30.6
15 21.06 штиль 0 5000 м зарница 9/4
[Cb cap Ac As]
+26.3 +24.3 89 +37 +37 очень
душно
1008.6 1008.2
18 21.06 ЮВ 2 н/о зарница 9/4
[Cb cap Ac As]
+25.8 +24.3 91 +36 +36 очень
душно
1008.2 1007.8
21 21.06 штиль 0 8000 м 9/1 400 м
[Cu hum Ac trans Ci fib]
+25.4 +24.1 93 +35 +35 очень
душно
1008.0 1007.6
00 22.06 Ю 3 9000 м в посл. час дождь 9/5 360 м
[Cb cap As op]
+27.4 +24.6 85 +39 +40 очень
душно
1009.2 1008.8 +23.6 0.0
03 22.06 10 км в посл. час дождь 9/4 360 м
[Cb cap As op]
+28.4 +24.6 80 1007.2 1006.9 2
06 22.06 СЗ 3 10 км 9/4 360 м
[Cu Sc Ac trans Ci fib]
+31.0 +25.3 72 +45 +48 опасность
перегрева
1004.8 1004.4
09 22.06 С 3 8000 м 9/1 360 м
[Cu hum Ac trans Ci fib]
+29.4 +25.4 79 +43 +43 опасность
перегрева
1006.5 1006.2
12 22.06 штиль 0 6000 м зарница 6/4
[Cb cap Ac trans Ci sp]
+27.2 +24.8 87 +39 +39 очень
душно
1008.5 1008.2 +31.2
15 22.06 штиль 0 5000 м зарница 9/4
[Cb cap Ac As]
+25.8 +24.8 94 +37 +37 очень
душно
1007.9 1007.5
18 22.06 С 2 6000 м зарница 6/4
[Cb cap Ac trans Ci fib]
+25.2 +23.1 88 +34 +34 очень
душно
1007.0 1007.3
21 22.06 СВ 2 8000 м 6/4 360 м
[Cb cap Ac trans Ci fib]
+24.6 +22.7 89 +32 +32 очень
душно
1008.2 1007.8
00 23.06 штиль 0 10 км 6/1
[Cu hum Ci fib]
+28.6 +25.0 81 +41 +51 опасность
перегрева
1008.5 1008.1 +22.7
03 23.06 Ю 2 10 км 6/3
[Cu hum Ci fib]
+32.0 +25.4 68 +46 +58 опасность
перегрева
1007.1
09 23.06 штиль 0 8000 м {дождь} 9/3
[Cu hum Ac trans Ci fib]
+28.8 +25.8 84 +43 +43 опасность
перегрева
1007.6 1007.3 0.5
12 23.06 С 3 н/о зарница 9/4
[Cb cap Ac As]
+26.8 +24.7 88 +38 +38 очень
душно
1009.7 1009.3 +32.5
15 23.06 В 2 н/о зарница {гроза} 9/6
[Cb cap Ac trans Ci sp]
+26.4 +24.9 91 +38 +38 очень
душно
1009.3 1008.9
18 23.06 штиль 0 4000 м зарница 9/4
[Cb cap Ac As]
+26.2 +24.4 90 +37 +37 очень
душно
1009.0 1008.6
21 23.06 штиль 0 6000 м зарница 8/4
[Cb cap Ac trans Ci sp]
+25.6 +24.1 91 +35 +35 очень
душно
1009.5 1009.1
03 24.06 ЮЗ 3 10 км 9/4 360 м
[Cb cap Ac trans Ci fib]
+30.4 +26.2 78 +46 +52 опасность
перегрева
1009.4 1009.1
09 24.06 штиль 0 10 км 9/3
[Cu hum Ac trans Ci fib]
+29.4 +25.2 78 +43 +43 опасность
перегрева
1008.7 1008.4
12 24.06 штиль 0 8000 м 8/3
[Cu hum Ac trans Ci fib]
+27.0 +24.5 86 +38 +38 очень
душно
1010.9 1010.5 +30.8
15 24.06 С 2 5000 м 6/3
[Cu hum Ac trans Ci fib]
+26.1 +24.0 88 +36 +36 очень
душно
1010.7 1010.4
18 24.06 штиль 0 5000 м зарница {дождь} 10/4
[Cb cap As op]
+25.8 +23.8 89 +35 +35 очень
душно
1009.3 1009.0 0.0
21 24.06 штиль 0 7000 м 9/4
[Cb cap Ac As]
+25.4 +23.9 91 +35 +35 очень
душно
1009.7 1009.4
00 25.06 Ю 5 8000 м 4/3 400 м
[Cu hum Ci ing]
+28.6 +25.1 81 +41 +44 опасность
перегрева
1011.0 1010.6 +24.0
03 25.06 С 3 9000 м 4/1 360 м
[Cu med, cong Ac trans Ci fib]
+30.0 +25.7 78 +45 +57 опасность
перегрева
1008.9 1008.5
06 25.06 З 3 10 км 8/4 360 м
[Cu Sc Ac trans Ci fib]
+30.4 +25.6 76 +45 +48 опасность
перегрева
1007.5 1007.2
09 25.06 В 3 8000 м 6/3
[Cb cap Ac cuf Cs]
+29.0 +24.4 76 +41 +41 опасность
перегрева
1008.0 1007.7
12 25.06 С 4 н/о зарница 9/4
[Cb cap Ac trans Ci sp]
+27.4 +23.9 81 +38 +38 очень
душно
1010.0 1009.7 +31.6
15 25.06 штиль 0 н/о зарница 9/4
[Cb cap Ac trans]
+25.2 +23.9 93 +35 +35 очень
душно
1009.1 1008.7
18 25.06 СВ 5 н/о зарница {дождь} 9/5
[Cb cap Ac As]
+25.2 +23.9 93 +35 +35 очень
душно
1008.3 1007.9 0.3
21 25.06 С 2 8000 м 9/4
[Cb cap Ac As]
+24.8 +23.5 92 +33 +33 очень
душно
1008.4 1008.0
00 26.06 С 5 8000 м слаб. дождь 9/5
[Cb cap Ac As]
+26.4 +25.5 95 +39 +40 очень
душно
1009.5 1009.1 +24.0 17
03 26.06 Ю 3 10 км {дождь} 9/1
[Cu hum Ac trans Ci fib]
+30.2 +25.5 76 +44 +53 опасность
перегрева
1007.5 1007.2 1
09 26.06 СВ 3 10 км 9/9
[Cu Sc]
+28.7 +24.5 78 +41 +41 опасность
перегрева
1007.3 1006.9
12 26.06 штиль 0 7000 м зарница 9/4
[Cb cap Ac As]
+27.2 +24.5 85 +38 +38 очень
душно
1009.3 1009.0 +30.5
15 26.06 С 2 5000 м зарница {дождь} 10/5
[Cb cap As op]
+26.2 +24.7 91 +37 +37 очень
душно
1008.5 1008.2 0.0
21 26.06 С 2 7000 м 10/4
[Cb cap Ac inh]
+25.8 +24.3 91 +36 +36 очень
душно
1007.4 1007.1 1

 

Местоположение метеостанции Серуи (Индонезия): широта -1.87 долгота 136.23 высота над уровнем моря 3 м.

В архиве по умолчанию представлена погода в Серуи за последнюю неделю. Архивные данные за месяц целиком и за предыдущие месяцы, начиная с января 2011 года, Вы можете получить, выбрав интересующий диапазон дат из раскрывающегося списка и нажав кнопку "Ввод!".


*Определитесь, кто Вы:
робот инопланетянин человек

Внимание! Время в таблицах - всемирное. Для получения местного времени необходимо прибавить поправку, которая равна 9 ч.

Смотрите также архив погоды в соседних городах и на ближайших метеорологических станциях:

Погода в Биаке (Индонезия) (78 км)
Погода в Набире (Индонезия) (182 км)
Погода в Энаротали (Индонезия) (229 км)
Погода в Маноквари (Индонезия) (266 км)
Погода в Сарми (Индонезия) (276 км)
Погода в Каимана (Индонезия) (341 км)
Погода в Коконао (Индонезия) (374 км)
Погода в Вамене (Индонезия) (389 км)
Погода в Факфаке (Индонезия) (456 км)
Погода в Сентани (Индонезия) (483 км)

Пояснения к столбцам:

Ветер - указаны скорость ветра в м/с - средняя за 10 мин, порывы в срок и между сроками (в фигурных скобках) и направление, откуда дует ветер: С - северный, СВ - северо-восточный, В - восточный, ЮВ - юго-восточный, Ю - южный, ЮЗ - юго-западный, З - западный, СЗ - северо-западный.
Видимость - горизонтальная дальность видимости в метрах или километрах. При видимости от 1 до 10 км при отсутствии осадков обычно наблюдается дымка, при ухудшении видимости до 1 км и менее - туман. В сухую погоду видимость может ухудшаться дымом, пылью или мглою.
Явления - указаны атмосферные явления, наблюдавшиеся в срок или в последний час перед сроком; фигурными скобками обозначены явления, наблюдавшиеся между сроками (за 1-3 часа до срока); квадратными скобками обозначены град или гололедные отложения с указанием их диаметра в мм.
Облачность - указаны через наклонную черту общая и нижняя облачность в баллах и высота нижней границы облаков в метрах; квадратными скобками обозначены формы облаков: Ci - перистые, Cs - перисто-слоистые, Cc - перисто-кучевые, Ac - высококучевые, As - высокослоистые, Sc - слоисто-кучевые, Ns - слоисто-дождевые, Cu - кучевые, Cb - кучево-дождевые. Подробнее классификацию облаков см. в Атласе облаков (PDF).
T - Температура воздуха - температура, измеренная на высоте 2 м над землей.
Td - Температура точки росы - температура, при понижении до которой содержащийся в воздухе водяной пар достигнет насыщения.
f - Относительная влажность воздуха - влажноcть воздуха, измеренная на высоте 2 м над землей.
Te - Эффективная температура - температура, которую ощущает одетый по сезону человек в тени. Характеристика душности погоды. При расчете учитывается влияние влажности воздуха и скорости ветра на теплоощущения человека.
Tes - Эффективная температура на солнце - температура, которую ощущает человек, с поправкой на солнечный нагрев. Характеристика знойности погоды. Зависит от высоты солнца над горизонтом, облачности и скорости ветра. Ночью, в пасмурную погоду, а также при ветре 12 м/с и более поправка равна нулю.
P - Атмосферное давление - приведенное к уровню моря атмосферное давление.
Po - Атмосферное давление - измеренное на уровне метеостанции атмосферное давление.
Tmin - Минимальная температура - минимум температуры воздуха на высоте 2 м над землей.
Tmax - Максимальная температура - максимум температуры воздуха на высоте 2 м над землей.
R - Количество осадков - Количество выпавших осадков за период времени, мм. При наведении курсора мыши на число - период времени, за который выпало указанное количество осадков.
R24 - Количество осадков - Количество выпавших осадков за 24 часа, мм.
S - Снежный покров - Высота снежного покрова, см. При наведении курсора мыши на число - состояние снежного покрова и степень покрытия местности в баллах.